1497628801.04,51712,18.0,73534.0,2.93,-1.21,-7.43,0,*77
1497628802.31,51713,18.06,73502.0,2.89,-1.13,-7.31,0,*79
1497628803.55,51714,18.06,73500.8,2.91,-1.09,-7.27,0,*7B
1497628804.79,51715,18.06,73548.0,2.89,-0.97,-7.15,0,*44
1497628806.0,51716,18.06,73580.0,2.91,-0.85,-6.89,0,*49
1497628807.24,51717,18.06,73586.0,2.91,-1.09,-7.27,0,*78
1497628808.48,51718,18.0,73580.8,2.91,-1.13,-7.35,0,*7F
1497628809.71,51719,18.0,73562.5,2.91,-1.01,-7.11,0,*7B
1497628810.95,51720,18.06,73558.8,2.89,-1.25,-7.39,0,*74
1497628812.19,51721,18.0,73532.3,2.91,-1.43,-7.57,0,*74
1497628813.43,51722,18.06,73478.3,2.91,-1.47,-7.65,0,*72
1497628814.65,51723,18.06,73498.3,2.91,-1.43,-7.53,0,*72
1497628815.86,51724,18.06,73514.8,2.91,-1.35,-7.49,0,*7F
1497628817.1,51725,18.0,73568.3,2.91,-1.01,-7.01,0,*75
1497628818.32,51726,18.06,73546.5,2.91,-1.21,-7.35,0,*73
1497628819.6,51727,18.0,73526.8,2.89,-1.47,-7.43,0,*7A
1497628820.79,51728,18.06,73524.0,2.91,-1.25,-7.15,0,*7B
1497628822.0,51729,18.06,73516.3,2.89,-1.25,-7.19,0,*7F
1497628823.23,51730,18.06,73530.8,2.89,-1.17,-7.15,0,*7A
1497628824.43,51731,18.06,73532.5,2.91,-1.21,-7.15,0,*77
1497628825.67,51732,18.06,73542.3,2.89,-1.13,-7.19,0,*70
1497628826.89,51733,18.0,73530.3,2.89,-1.17,-7.19,0,*75
1497628828.14,51734,18.0,73536.3,2.89,-1.25,-7.31,0,*79
1497628829.38,51735,18.0,73528.5,2.89,-1.29,-7.27,0,*73
1497628830.64,51736,18.0,73536.5,2.89,-1.13,-7.05,0,*79
1497628831.86,51737,18.06,73546.0,2.89,-1.25,-7.19,0,*70
1497628833.13,51738,18.06,73532.8,2.89,-1.35,-7.27,0,*73
1497628834.4,51739,18.06,73546.3,2.89,-1.35,-7.27,0,*72
1497628835.64,51740,18.0,73556.8,2.89,-1.17,-7.05,0,*7C
1497628836.9,51741,18.06,73550.5,2.89,-1.13,-7.05,0,*79
1497628838.15,51742,18.06,73536.3,2.89,-1.29,-7.27,0,*73
1497628839.36,51743,18.06,73550.3,2.89,-1.25,-7.15,0,*7F
1497628840.59,51744,18.06,73532.8,2.89,-1.29,-7.15,0,*74
1497628841.81,51745,18.06,73542.0,2.89,-1.29,-7.15,0,*75
1497628843.05,51746,18.0,73540.3,2.89,-1.17,-7.05,0,*7A
1497628844.27,51747,18.06,73546.8,2.91,-1.21,-6.97,0,*7D
1497628845.51,51748,18.06,73538.0,2.89,-1.17,-7.05,0,*74
1497628846.78,51749,18.0,73532.8,2.89,-1.13,-7.01,0,*75
1497628848.0,51750,18.0,73528.5,2.89,-1.17,-7.15,0,*7C
1497628849.27,51751,18.06,73520.8,2.89,-1.35,-7.27,0,*7C
1497628850.48,51752,18.06,73524.3,2.89,-1.51,-7.53,0,*7E
1497628851.72,51753,18.06,73536.5,2.89,-1.79,-7.73,0,*77
1497628852.93,51754,18.06,73528.3,2.87,-1.75,-7.73,0,*72
1497628854.15,51755,18.0,73528.0,2.87,-1.51,-7.43,0,*76
1497628855.39,51756,18.06,73542.0,2.87,-1.39,-7.27,0,*79
1497628856.57,51757,18.06,73552.0,2.87,-1.59,-7.53,0,*7D
1497628857.82,51758,18.0,73548.5,2.89,-1.71,-7.57,0,*72
1497628859.05,51759,18.06,73562.0,2.87,-1.71,-7.61,0,*78
1497628860.32,51760,18.06,73554.8,2.85,-1.83,-7.77,0,*7A
1497628861.56,51761,18.06,73560.5,2.85,-1.75,-7.65,0,*71
1497628862.8,51762,18.0,73550.3,2.85,-1.63,-7.61,0,*71
1497628864.07,51763,18.06,73576.8,2.85,-1.91,-7.77,0,*7A
1497628865.31,51764,18.06,73540.5,2.85,-1.75,-7.65,0,*74
1497628866.55,51765,18.06,73540.3,2.85,-1.63,-7.57,0,*73
1497628867.79,51766,18.0,73538.3,2.85,-1.67,-7.57,0,*74
1497628869.01,51767,18.06,73550.8,2.83,-1.55,-7.43,0,*77
1497628870.22,51768,18.06,73548.0,2.83,-1.55,-7.31,0,*7D
1497628871.44,51769,18.06,73540.5,2.83,-1.55,-7.43,0,*79
1497628872.65,51770,18.06,73540.8,2.83,-1.79,-7.77,0,*78
1497628873.87,51771,18.06,73548.0,2.83,-1.63,-7.57,0,*70
1497628875.09,51772,18.0,73550.3,2.83,-1.43,-7.23,0,*72
1497628876.34,51773,18.06,73552.3,2.85,-1.43,-7.19,0,*7C
1497628877.55,51774,18.0,73544.5,2.83,-1.63,-7.43,0,*70
1497628878.77,51775,18.06,73550.0,2.81,-1.67,-7.53,0,*76
1497628879.98,51776,18.06,73550.0,2.81,-1.59,-7.53,0,*78
1497628881.2,51777,18.06,73544.8,2.81,-1.67,-7.49,0,*7F
1497628882.41,51778,18.0,73548.5,2.83,-1.55,-7.43,0,*79
1497628883.66,51779,18.0,73524.8,2.81,-1.79,-7.65,0,*70
1497628884.93,51780,18.0,73542.8,2.81,-1.87,-7.77,0,*74
1497628886.15,51781,18.0,73542.0,2.81,-1.55,-7.23,0,*7B
1497628887.4,51782,18.06,73552.3,2.81,-1.35,-7.23,0,*7E
1497628888.65,51783,18.06,73544.8,2.81,-1.35,-7.15,0,*7A
1497628889.9,51784,18.06,73542.5,2.81,-1.43,-7.23,0,*79
1497628891.11,51785,18.0,73544.3,2.83,-1.51,-7.31,0,*7A
1497628892.33,51786,18.06,73544.5,2.81,-1.55,-7.15,0,*79
1497628893.57,51787,18.0,73536.5,2.81,-1.55,-7.35,0,*7A
1497628894.76,51788,18.06,73546.0,2.83,-1.51,-7.23,0,*74
1497628895.98,51789,18.06,73546.8,2.83,-1.55,-7.35,0,*76
1497628897.24,51790,18.06,73538.8,2.81,-1.83,-7.69,0,*7E
1497628898.47,51791,18.06,73548.0,2.81,-1.71,-7.49,0,*70
1497628899.71,51792,18.0,73540.5,2.81,-1.55,-7.27,0,*7D
1497628900.95,51793,18.06,73536.5,2.81,-1.59,-7.39,0,*7F
1497628902.2,51794,18.0,73538.5,2.81,-1.35,-7.15,0,*7C
1497628903.46,51795,18.0,73538.3,2.81,-1.35,-7.01,0,*78
1497628904.71,51796,18.0,73544.8,2.81,-1.25,-7.01,0,*7A
1497628905.93,51797,18.0,73542.3,2.83,-1.33,-6.97,0,*70
1497628907.15,51798,18.06,73538.8,2.83,-1.21,-6.97,0,*7C
1497628908.36,51799,18.0,73540.5,2.83,-1.29,-6.97,0,*75
1497628909.61,51800,18.0,73542.0,2.81,-1.21,-7.01,0,*7E
1497628910.85,51801,18.0,73544.3,2.83,-1.09,-6.93,0,*7D
1497628912.07,51802,18.06,73546.3,2.83,-1.01,-6.77,0,*7C
1497628913.31,51803,18.0,73548.5,2.85,-1.43,-7.19,0,*74
1497628914.55,51804,18.06,73542.0,2.85,-1.51,-7.31,0,*7A
1497628915.79,51805,18.0,73542.3,2.85,-1.75,-7.57,0,*7D
1497628917.06,51806,18.06,73532.5,2.85,-1.83,-7.65,0,*76
1497628918.27,51807,18.0,73520.5,2.83,-1.55,-7.35,0,*7F
1497628919.5,51808,18.0,73546.3,2.83,-1.39,-7.23,0,*7D
1497628920.69,51809,18.0,73522.5,2.83,-1.33,-7.19,0,*7F
1497628921.91,51810,18.0,73534.5,2.83,-1.43,-7.23,0,*79
1497628923.13,51811,18.0,73528.5,2.83,-1.55,-7.43,0,*79
1497628924.35,51812,18.0,73536.0,2.83,-1.63,-7.43,0,*7F
1497628925.56,51813,18.0,73532.5,2.83,-1.55,-7.31,0,*7E
1497628926.78,51814,18.06,73540.0,2.83,-1.43,-7.19,0,*74
1497628928.03,51815,18.06,73546.3,2.85,-1.43,-7.19,0,*73
1497628929.25,51816,18.06,73544.8,2.85,-1.29,-7.11,0,*74
1497628930.48,51817,18.06,73546.8,2.85,-1.33,-7.19,0,*76
1497628931.7,51818,18.06,73558.3,2.85,-1.33,-7.19,0,*79
1497628932.94,51819,18.06,73564.0,2.85,-1.67,-7.57,0,*73
1497628934.2,51820,18.0,73568.8,2.85,-1.95,-7.91,0,*7E
1497628935.47,51821,18.0,73562.5,2.85,-1.83,-7.73,0,*74
1497628936.71,51822,18.06,73558.5,2.85,-2.19,-8.03,0,*7F
1497628937.92,51823,18.0,73570.3,2.81,-2.35,-8.33,0,*77
1497628939.14,51824,18.0,73576.5,2.81,-2.43,-8.41,0,*74
1497628940.35,51825,18.0,73550.0,2.81,-2.31,-8.29,0,*7E
1497628941.6,51826,18.0,73528.8,2.79,-2.07,-7.91,0,*73
1497628942.85,51827,18.06,73510.3,2.79,-1.99,-7.91,0,*76
1497628944.03,51828,18.06,73528.8,2.75,-1.63,-7.53,0,*7E
1497628945.25,51829,18.0,73550.0,2.79,-1.67,-7.39,0,*7B
1497628946.44,51830,18.0,73568.3,2.79,-1.67,-7.49,0,*74
1497628947.63,51831,18.0,73564.8,2.79,-1.71,-7.53,0,*79
1497628948.85,51832,18.06,73564.8,2.81,-1.59,-7.49,0,*7C
1497628950.06,51833,18.06,73558.8,2.81,-1.67,-7.49,0,*70
1497628951.28,51834,18.0,73570.5,2.81,-1.67,-7.49,0,*77
1497628952.53,51835,18.06,73558.3,2.81,-1.67,-7.61,0,*7C
1497628953.77,51836,18.06,73556.8,2.81,-1.79,-7.69,0,*78
1497628955.04,51837,18.0,73552.8,2.81,-1.87,-7.77,0,*77
1497628956.29,51838,18.06,73572.0,2.81,-1.79,-7.65,0,*7A
1497628957.54,51839,18.06,73584.3,2.81,-1.71,-7.65,0,*73
1497628958.79,51840,18.06,73576.0,2.81,-1.71,-7.61,0,*79
1497628960.01,51841,18.0,73564.5,2.81,-1.67,-7.49,0,*75
1497628961.22,51842,18.06,73560.8,2.79,-1.59,-7.39,0,*7B
1497628962.44,51843,18.06,73570.8,2.79,-1.55,-7.35,0,*7A
1497628963.69,51844,18.0,73560.8,2.81,-1.79,-7.61,0,*75
1497628964.96,51845,18.06,73568.3,2.81,-1.83,-7.65,0,*75
1497628966.23,51846,18.06,73566.3,2.81,-2.11,-7.95,0,*71
1497628967.47,51847,18.06,73550.8,2.81,-2.23,-8.03,0,*71
1497628968.69,51848,18.06,73556.3,2.81,-2.35,-8.21,0,*79
1497628969.9,51849,18.0,73556.5,2.75,-2.35,-8.11,0,*70
1497628971.11,51850,18.06,73570.5,2.79,-2.23,-8.03,0,*70
1497628972.33,51851,18.06,73566.8,2.75,-2.27,-8.11,0,*7A
1497628973.52,51852,18.06,73552.5,2.75,-2.31,-8.17,0,*78
1497628974.75,51853,18.06,73528.3,2.75,-2.03,-7.83,0,*7A
1497628975.99,51854,18.0,73544.5,2.75,-1.91,-7.65,0,*7D
1497628977.18,51855,18.06,73550.8,2.75,-1.75,-7.53,0,*73
1497628978.4,51856,18.06,73570.0,2.75,-1.75,-7.57,0,*74
1497628979.59,51857,18.06,73566.0,2.75,-1.67,-7.49,0,*79
1497628980.77,51858,18.06,73556.3,2.75,-1.75,-7.53,0,*7E
1497628982.02,51859,18.06,73556.5,2.75,-1.83,-7.57,0,*72
1497628983.24,51860,18.06,73558.0,2.75,-1.75,-7.57,0,*71
1497628984.47,51861,18.06,73544.5,2.75,-1.71,-7.43,0,*71
1497628985.68,51862,18.0,73550.3,2.75,-1.63,-7.39,0,*7C
1497628986.9,51863,18.0,73544.8,2.75,-1.63,-7.31,0,*75
1497628988.12,51864,18.0,73546.8,2.75,-1.63,-7.31,0,*72
1497628989.34,51865,18.0,73548.3,2.75,-1.63,-7.27,0,*74
1497628990.53,51866,18.0,73554.3,2.79,-1.59,-7.23,0,*76
1497628991.72,51867,18.06,73544.3,2.79,-1.59,-7.23,0,*77
1497628992.93,51868,18.0,73546.5,2.79,-1.67,-7.27,0,*71
1497628994.13,51869,18.06,73552.8,2.79,-1.71,-7.49,0,*7F
1497628995.32,51870,18.0,73560.8,2.79,-1.79,-7.53,0,*74
1497628996.57,51871,18.06,73572.0,2.79,-1.87,-7.61,0,*75
1497628997.81,51872,18.06,73564.3,2.79,-1.87,-7.65,0,*72
1497628999.06,51873,18.06,73554.8,2.79,-1.99,-7.77,0,*7F
1497629000.28,51874,18.0,73548.8,2.75,-2.23,-7.99,0,*76
1497629001.52,51875,18.06,73560.5,2.75,-1.87,-7.65,0,*79
1497629002.77,51876,18.06,73560.5,2.79,-1.87,-7.65,0,*76
1497629004.01,51877,18.06,73560.8,2.75,-1.95,-7.69,0,*74
1497629005.25,51878,18.06,73564.5,2.75,-2.03,-7.73,0,*7C
1497629006.47,51879,18.06,73568.0,2.75,-2.39,-8.11,0,*7F
1497629007.68,51880,18.0,73532.3,2.75,-2.23,-7.95,0,*71
1497629008.91,51881,18.06,73560.0,2.79,-2.11,-7.83,0,*7A
1497629010.1,51882,18.06,73548.3,2.75,-2.23,-7.87,0,*70
1497629011.3,51883,18.06,73550.0,2.75,-2.15,-7.83,0,*70
1497629012.54,51884,18.06,73558.0,2.75,-2.03,-7.69,0,*74
1497629013.79,51885,18.0,73556.3,2.75,-1.83,-7.43,0,*76
1497629015.03,51886,18.0,73566.8,2.75,-1.91,-7.57,0,*73
1497629016.28,51887,18.0,73556.3,2.75,-1.95,-7.65,0,*77
1497629017.49,51888,18.0,73552.8,2.79,-1.83,-7.53,0,*76
1497629018.74,51889,18.0,73562.0,2.75,-1.83,-7.57,0,*7F
1497629019.93,51890,18.0,73554.3,2.75,-2.15,-7.83,0,*72
1497629021.17,51891,18.0,73546.3,2.73,-2.27,-7.91,0,*77
1497629022.42,51892,18.06,73558.0,2.73,-2.27,-7.91,0,*74
1497629023.66,51893,18.0,73552.8,2.73,-2.27,-7.91,0,*75
1497629024.88,51894,18.0,73554.3,2.73,-2.15,-7.87,0,*74
1497629026.1,51895,18.06,73560.0,2.73,-2.27,-7.87,0,*74
1497629027.35,51896,18.0,73550.8,2.73,-2.31,-7.91,0,*77
1497629028.59,51897,18.0,73546.3,2.73,-2.31,-7.91,0,*76
1497629029.84,51898,18.06,73558.5,2.73,-2.27,-7.77,0,*76
1497629031.06,51899,18.06,73552.8,2.73,-2.27,-7.87,0,*78
1497629032.3,51900,18.06,73558.0,2.73,-2.27,-7.77,0,*76
1497629033.53,51901,18.0,73548.5,2.73,-2.31,-7.87,0,*7F
1497629034.77,51902,18.06,73558.0,2.73,-2.19,-7.77,0,*79
1497629036.02,51903,18.0,73552.8,2.73,-2.27,-7.77,0,*75
1497629037.21,51904,18.0,73560.0,2.71,-2.31,-7.87,0,*78
1497629038.41,51905,18.06,73550.5,2.71,-2.31,-7.87,0,*79
1497629039.65,51906,18.06,73558.3,2.73,-2.15,-7.73,0,*75
1497629040.89,51907,18.06,73556.5,2.73,-2.15,-7.69,0,*7F
1497629042.14,51908,18.06,73552.0,2.73,-2.39,-7.77,0,*71
1497629043.35,51909,18.0,73554.0,2.71,-2.43,-7.91,0,*77
1497629044.62,51910,18.0,73550.5,2.73,-2.51,-7.99,0,*76
1497629045.86,51911,18.06,73552.8,2.71,-2.55,-7.91,0,*79
1497629047.1,51912,18.06,73554.0,2.71,-2.75,-8.11,0,*7F
1497629048.34,51913,18.0,73544.8,2.71,-2.55,-7.91,0,*7B
1497629049.55,51914,18.06,73554.0,2.71,-2.43,-7.73,0,*77
1497629050.8,51915,18.0,73544.8,2.73,-2.51,-7.87,0,*7C
1497629052.04,51916,18.06,73552.0,2.71,-2.63,-7.91,0,*7B
1497629053.26,51917,18.06,73548.8,2.71,-2.55,-7.87,0,*78
1497629054.53,51918,18.06,73550.8,2.69,-2.55,-7.91,0,*79
1497629055.78,51919,18.0,73554.3,2.69,-2.55,-7.83,0,*7B
1497629057.02,51920,18.0,73552.8,2.69,-2.55,-7.83,0,*71
1497629058.26,51921,18.0,73548.5,2.67,-2.55,-7.83,0,*7E
1497629059.5,51922,18.0,73544.0,2.69,-2.59,-7.83,0,*7F
1497629060.77,51923,18.0,73544.8,2.67,-2.47,-7.77,0,*74
1497629062.04,51924,18.06,73552.0,2.69,-2.47,-7.77,0,*7D
1497629063.28,51925,18.0,73552.0,2.69,-2.43,-7.65,0,*7B
1497629064.53,51926,18.06,73546.3,2.69,-2.43,-7.61,0,*7C
1497629065.8,51927,18.06,73548.3,2.67,-2.47,-7.61,0,*77
1497629067.04,51928,18.0,73550.3,2.69,-2.43,-7.61,0,*72
1497629068.29,51929,18.0,73544.3,2.69,-2.43,-7.61,0,*73
1497629069.5,51930,18.0,73544.8,2.69,-2.43,-7.53,0,*7A
1497629070.74,51931,18.06,73554.5,2.69,-2.35,-7.61,0,*7B
1497629071.95,51932,18.0,73560.8,2.67,-2.35,-7.49,0,*7C
1497629073.23,51933,18.0,73558.8,2.69,-2.47,-7.61,0,*7C
1497629074.5,51934,18.0,73562.5,2.69,-2.55,-7.73,0,*7B
1497629075.74,51935,18.06,73538.8,2.69,-2.71,-7.83,0,*73
1497629077.0,51936,18.06,73544.8,2.67,-2.59,-7.77,0,*7F
1497629078.28,51937,18.06,73546.5,2.69,-2.47,-7.61,0,*78
1497629079.48,51938,18.0,73558.8,2.67,-2.43,-7.53,0,*7C
1497629080.72,51939,18.06,73568.0,2.69,-2.47,-7.53,0,*77
1497629081.99,51940,18.06,73570.5,2.67,-2.55,-7.61,0,*75
1497629083.23,51941,18.0,73566.8,2.67,-2.43,-7.39,0,*7E
1497629084.44,51942,18.0,73550.8,2.69,-2.43,-7.49,0,*74
1497629085.68,51943,18.06,73554.8,2.67,-2.87,-7.91,0,*76
1497629086.92,51944,18.0,73524.3,2.69,-2.87,-7.91,0,*7F
1497629088.13,51945,18.0,73530.5,2.67,-2.43,-6.73,0,*75
1497629089.39,51946,18.0,73528.8,2.67,-2.59,-7.61,0,*7F
1497629090.66,51947,18.06,73548.0,2.67,-2.67,-7.73,0,*70
1497629091.92,51948,18.0,73554.8,2.67,-2.71,-7.77,0,*7C
1497629093.18,51949,18.0,73536.0,2.67,-2.67,-7.61,0,*7D
1497629094.42,51950,18.06,73572.8,2.67,-2.59,-7.53,0,*79
1497629095.68,51951,18.0,73570.3,2.67,-2.59,-7.35,0,*78
1497629096.94,51952,18.06,73568.5,2.67,-2.47,-7.27,0,*77
1497629098.16,51953,18.0,73564.0,2.67,-2.43,-7.23,0,*76
1497629099.4,51954,18.06,73574.8,2.67,-2.47,-7.23,0,*75
1497629100.62,51955,18.0,73562.8,2.67,-2.43,-7.23,0,*70
1497629101.85,51956,18.0,73560.0,2.67,-2.67,-7.53,0,*72
1497629103.09,51957,18.0,73552.0,2.67,-2.83,-7.73,0,*7B
1497629104.35,51958,18.0,73550.5,2.67,-2.47,-7.27,0,*7D
1497629105.59,51959,18.0,73560.0,2.67,-2.19,-7.01,0,*73
1497629106.82,51960,18.06,73586.5,2.67,-2.23,-6.93,0,*7A
1497629108.06,51961,18.0,73578.5,2.67,-2.23,-6.93,0,*7B
1497629109.33,51962,18.06,73582.3,2.69,-2.47,-7.27,0,*7A
1497629110.59,51963,18.06,73586.5,2.67,-2.67,-7.39,0,*78
1497629111.85,51964,18.0,73576.8,2.67,-2.55,-7.35,0,*72
1497629113.11,51965,18.0,73568.5,2.67,-2.59,-7.39,0,*73
1497629114.35,51966,18.0,73550.3,2.67,-2.83,-7.61,0,*7A
1497629115.59,51967,18.0,73556.0,2.67,-2.87,-7.61,0,*7F
1497629116.81,51968,18.06,73548.3,2.67,-3.07,-7.83,0,*75
1497629118.05,51969,18.0,73550.5,2.67,-2.95,-7.65,0,*76
1497629119.29,51970,18.0,73560.5,2.67,-2.87,-7.65,0,*7D
1497629120.5,51971,18.06,73566.0,2.67,-2.83,-7.53,0,*7D
1497629121.71,51972,18.06,73564.3,2.65,-2.83,-7.43,0,*7D
1497629122.98,51973,18.0,73580.5,2.63,-2.75,-7.43,0,*73
1497629124.22,51974,18.0,73566.0,2.63,-3.03,-7.73,0,*77
1497629125.46,51975,18.0,73562.5,2.65,-2.71,-7.27,0,*75
1497629126.72,51976,18.0,73572.8,2.63,-2.67,-7.31,0,*70
1497629127.98,51977,18.0,73578.5,2.67,-2.71,-7.27,0,*75
1497629129.19,51978,18.06,73584.8,2.65,-2.83,-7.31,0,*72
1497629130.42,51979,18.0,73576.5,2.63,-2.91,-7.57,0,*76
1497629131.63,51980,18.06,73574.5,2.63,-2.87,-7.49,0,*78
1497629132.87,51981,18.06,73566.3,2.63,-3.03,-7.61,0,*7E
1497629134.09,51982,18.06,73558.8,2.65,-2.91,-7.43,0,*71
1497629135.3,51983,18.0,73560.8,2.65,-2.71,-7.19,0,*71
1497629136.55,51984,18.06,73572.3,2.63,-2.63,-7.19,0,*73
1497629137.76,51985,18.06,73572.3,2.65,-2.51,-7.15,0,*79
1497629139.0,51986,18.0,73556.5,2.63,-2.79,-7.31,0,*70
1497629140.25,51987,18.06,73572.3,2.63,-2.55,-7.01,0,*7C
1497629141.49,51988,18.0,73544.0,2.63,-2.55,-7.11,0,*72
1497629142.73,51989,18.0,73572.3,2.63,-2.63,-7.19,0,*7E
1497629143.97,51990,18.06,73590.5,2.65,-2.51,-6.97,0,*76
1497629145.21,51991,18.06,73554.5,2.65,-2.51,-6.97,0,*77
1497629146.43,51992,18.0,73566.5,2.65,-2.47,-6.77,0,*7D
1497629147.64,51993,18.06,73580.0,2.63,-2.43,-6.89,0,*7F
1497629148.88,51994,18.06,73588.3,2.65,-2.51,-6.97,0,*72
1497629150.09,51995,18.06,73592.8,2.65,-2.75,-7.15,0,*7E
1497629151.36,51996,18.06,73590.8,2.67,-2.71,-7.01,0,*7E
1497629152.57,51997,18.06,73590.3,2.65,-2.75,-7.15,0,*7C
1497629153.8,51998,18.06,73602.0,2.65,-2.75,-7.05,0,*72
1497629155.04,51999,18.0,73594.3,2.63,-3.03,-7.31,0,*72
1497629156.26,52000,18.06,73564.5,2.65,-2.87,-7.31,0,*73
1497629157.47,52001,18.0,73532.3,2.65,-2.87,-7.27,0,*75
1497629158.68,52002,18.0,73554.0,2.65,-2.91,-7.31,0,*76
1497629159.89,52003,18.0,73520.5,2.63,-2.91,-7.23,0,*72
1497629161.13,52004,18.0,73524.3,2.63,-2.63,-6.89,0,*79
1497629162.37,52005,18.06,73558.0,2.63,-2.55,-6.81,0,*75
1497629163.59,52006,18.06,73558.0,2.65,-2.51,-6.73,0,*79
1497629164.8,52007,18.0,73538.3,2.65,-2.47,-6.73,0,*7F
1497629166.02,52008,18.0,73550.5,2.65,-2.47,-6.73,0,*70
1497629167.26,52009,18.0,73558.3,2.65,-2.51,-6.63,0,*77
1497629168.45,52010,18.0,73574.0,2.65,-2.39,-6.59,0,*78
1497629169.66,52011,18.06,73564.5,2.65,-2.59,-6.85,0,*7E
1497629170.86,52012,18.0,73562.3,2.65,-2.83,-7.05,0,*73
1497629172.05,52013,18.06,73556.0,2.65,-2.87,-7.15,0,*77
1497629173.27,52014,18.06,73540.8,2.65,-2.75,-6.89,0,*79
1497629174.51,52015,18.06,73556.0,2.65,-2.47,-6.63,0,*7D
1497629175.73,52016,18.06,73548.3,2.65,-2.47,-6.59,0,*77
1497629176.95,52017,18.06,73554.5,2.65,-2.75,-6.89,0,*7A
1497629178.19,52018,18.0,73552.8,2.65,-2.75,-6.97,0,*7A
1497629179.37,52019,18.06,73560.0,2.65,-2.83,-6.89,0,*7D
1497629180.59,52020,18.0,73558.3,2.65,-2.71,-6.77,0,*7B
1497629181.81,52021,18.0,73570.0,2.65,-2.63,-6.77,0,*79
1497629183.02,52022,18.0,73570.3,2.65,-2.59,-6.73,0,*77
1497629184.26,52023,18.0,73564.8,2.65,-2.63,-6.63,0,*7E
1497629185.48,52024,18.06,73564.3,2.65,-2.63,-6.73,0,*78
1497629186.69,52025,18.0,73566.5,2.65,-2.71,-6.77,0,*7E
1497629187.91,52026,18.0,73564.5,2.65,-2.51,-6.47,0,*7C
1497629189.13,52027,18.0,73568.8,2.65,-2.47,-6.39,0,*73
1497629190.31,52028,18.06,73570.5,2.65,-2.39,-6.39,0,*75
1497629191.53,52029,18.0,73564.8,2.65,-2.47,-6.47,0,*74
1497629192.75,52030,18.0,73554.3,2.65,-2.47,-6.39,0,*75
1497629193.96,52031,18.0,73542.5,2.65,-2.51,-6.39,0,*73
1497629195.17,52032,18.0,73548.5,2.65,-2.47,-6.39,0,*77
1497629196.39,52033,18.0,73552.5,2.65,-2.35,-6.27,0,*7C
1497629197.57,52034,18.0,73556.3,2.65,-2.39,-6.35,0,*74
1497629198.79,52035,18.0,73558.5,2.69,-2.35,-6.31,0,*71
1497629200.03,52036,18.0,73566.5,2.69,-2.31,-6.23,0,*75
1497629201.25,52037,18.06,73568.3,2.67,-2.35,-6.31,0,*7D
1497629202.47,52038,18.0,73562.3,2.69,-2.35,-6.31,0,*7C
1497629203.71,52039,18.0,73562.5,2.67,-2.47,-6.31,0,*76
1497629204.95,52040,18.0,73574.0,2.71,-2.51,-6.27,0,*7F
1497629206.2,52041,18.0,73564.3,2.69,-2.55,-6.31,0,*74
1497629207.44,52042,18.06,73574.3,2.67,-2.59,-6.35,0,*71
1497629208.67,52043,18.0,73564.8,2.67,-2.59,-6.35,0,*70
1497629209.92,52044,18.0,73564.5,2.69,-2.67,-6.35,0,*74
1497629211.16,52045,18.0,73572.3,2.67,-2.71,-6.47,0,*79
1497629212.4,52046,18.06,73576.5,2.69,-2.71,-6.47,0,*74
1497629213.64,52047,18.0,73582.0,2.67,-2.67,-6.43,0,*78
1497629214.88,52048,18.06,73582.3,2.69,-2.71,-6.43,0,*7E
1497629216.13,52049,18.0,73578.3,2.69,-2.71,-6.43,0,*7F
1497629217.36,52050,18.0,73588.0,2.67,-2.59,-6.35,0,*72
1497629218.6,52051,18.0,73586.0,2.67,-2.71,-6.47,0,*7C
1497629219.82,52052,18.06,73580.5,2.67,-2.95,-6.69,0,*79
1497629221.06,52053,18.0,73550.5,2.69,-3.11,-6.93,0,*7E
1497629222.25,52054,18.0,73554.3,2.65,-3.11,-6.89,0,*7E
1497629223.46,52055,18.0,73570.3,2.67,-2.83,-6.47,0,*75
1497629224.68,52056,18.0,73590.5,2.67,-2.79,-6.43,0,*77
1497629225.89,52057,18.0,73582.3,2.69,-2.87,-6.55,0,*7E
1497629227.11,52058,18.06,73594.5,2.67,-2.99,-6.59,0,*7C
1497629228.32,52059,18.0,73578.5,2.67,-3.07,-6.85,0,*7A
1497629229.53,52060,18.0,73570.0,2.67,-3.07,-6.73,0,*79
1497629230.74,52061,18.0,73572.8,2.67,-2.83,-6.35,0,*77
1497629231.96,52062,18.06,73586.0,2.67,-2.79,-6.47,0,*74
1497629233.17,52063,18.0,73578.0,2.67,-2.79,-6.35,0,*70
1497629234.41,52064,18.0,73582.0,2.67,-2.71,-6.35,0,*7F
1497629235.66,52065,18.0,73570.0,2.69,-2.71,-6.35,0,*70
1497629236.9,52066,18.0,73572.3,2.67,-2.67,-6.31,0,*7E
1497629238.16,52067,18.0,73558.5,2.67,-2.55,-6.19,0,*74
1497629239.44,52068,18.06,73580.8,2.69,-2.47,-6.19,0,*76
1497629240.68,52069,18.06,73570.5,2.69,-2.47,-6.05,0,*7A
1497629241.92,52070,18.0,73584.8,2.69,-2.47,-6.09,0,*7E
1497629243.19,52071,18.0,73586.5,2.69,-2.59,-6.19,0,*71
1497629244.37,52072,18.06,73570.5,2.71,-2.83,-6.39,0,*7E
1497629245.59,52073,18.06,73572.8,2.67,-2.87,-6.43,0,*71
1497629246.81,52074,18.0,73580.8,2.69,-2.95,-6.35,0,*7A
1497629248.03,52075,18.0,73588.5,2.69,-2.83,-6.35,0,*7C
1497629249.24,52076,18.0,73574.5,2.69,-3.23,-6.73,0,*76
1497629250.46,52077,18.0,73574.3,2.69,-3.23,-6.73,0,*77
1497629251.68,52078,18.0,73584.8,2.69,-3.11,-6.47,0,*7E
1497629252.89,52079,18.06,73600.5,2.69,-2.87,-6.35,0,*74
1497629254.11,52080,18.0,73576.3,2.67,-3.11,-6.69,0,*7B
1497629255.34,52081,18.0,73580.5,2.67,-3.55,-7.15,0,*70
1497629256.56,52082,18.0,73582.0,2.67,-3.31,-6.85,0,*79
1497629257.77,52083,18.06,73572.3,2.67,-3.11,-6.69,0,*78
1497629258.98,52084,18.0,73584.5,2.67,-2.83,-6.35,0,*7C
1497629260.21,52085,18.06,73582.3,2.69,-2.95,-6.43,0,*75
1497629261.42,52086,18.06,73568.3,2.67,-3.19,-6.73,0,*7E
1497629262.61,52087,18.0,73570.5,2.65,-3.35,-6.77,0,*77
1497629263.85,52088,18.06,73560.3,2.65,-3.51,-6.97,0,*74
1497629265.07,52089,18.06,73578.8,2.65,-3.47,-6.89,0,*7D
1497629266.27,52090,18.0,73576.8,2.65,-3.15,-6.51,0,*77
1497629267.5,52091,18.06,73586.5,2.63,-3.19,-6.63,0,*7D
1497629268.72,52092,18.0,73576.5,2.63,-3.27,-6.55,0,*76
1497629269.94,52093,18.0,73582.0,2.65,-3.47,-6.77,0,*77
1497629271.13,52094,18.0,73584.3,2.65,-3.15,-6.47,0,*74
1497629272.33,52095,18.0,73604.5,2.65,-3.15,-6.47,0,*75
1497629273.52,52096,18.0,73586.8,2.65,-3.15,-6.47,0,*76
1497629274.71,52097,18.06,73590.8,2.65,-3.23,-6.59,0,*7D
1497629275.9,52098,18.0,73588.8,2.65,-3.15,-6.51,0,*7F
1497629277.1,52099,18.0,73580.0,2.65,-3.19,-6.51,0,*72
1497629278.31,52100,18.0,73584.3,2.63,-3.27,-6.43,0,*7B
1497629279.51,52101,18.0,73588.0,2.65,-3.15,-6.47,0,*79
1497629280.7,52102,18.06,73598.3,2.65,-3.11,-6.35,0,*7B
1497629281.92,52103,18.06,73598.0,2.63,-3.15,-6.43,0,*79
1497629283.12,52104,18.0,73602.5,2.63,-3.31,-6.69,0,*70
1497629284.36,52105,18.0,73600.5,2.63,-3.51,-6.77,0,*78
1497629285.6,52106,18.0,73606.8,2.63,-3.43,-6.77,0,*78
1497629286.84,52107,18.0,73568.5,2.63,-3.71,-7.11,0,*79
1497629288.1,52108,18.06,73574.8,2.63,-3.67,-6.93,0,*7A
1497629289.34,52109,18.0,73580.8,2.63,-3.63,-6.81,0,*7C
1497629290.56,52110,18.0,73572.3,2.63,-3.27,-6.43,0,*7A
1497629291.75,52111,18.0,73582.3,2.61,-3.15,-6.43,0,*78
1497629292.94,52112,18.0,73590.3,2.61,-3.31,-6.51,0,*7E
1497629294.15,52113,18.06,73586.0,2.61,-3.43,-6.55,0,*7E
1497629295.37,52114,18.0,73576.5,2.61,-3.39,-6.63,0,*71
1497629296.61,52115,18.0,73572.5,2.61,-3.67,-6.93,0,*74
1497629297.81,52116,18.0,73602.0,2.61,-3.55,-6.69,0,*73
1497629299.05,52117,18.0,73552.8,2.61,-3.67,-6.93,0,*76
1497629300.24,52118,18.06,73556.5,2.61,-4.21,-7.49,0,*7A
1497629301.48,52119,18.06,73552.8,2.59,-3.87,-7.05,0,*73
1497629302.67,52120,18.06,73566.5,2.61,-3.39,-6.51,0,*77
1497629303.91,52121,18.0,73576.8,2.59,-2.99,-6.19,0,*7A
1497629305.12,52122,18.0,73584.0,2.59,-2.99,-6.13,0,*73
1497629306.31,52123,18.06,73572.5,2.61,-3.03,-6.13,0,*7B
1497629307.52,52124,18.06,73576.0,2.59,-3.19,-6.31,0,*7C
1497629308.72,52125,18.0,73578.5,2.61,-3.15,-6.31,0,*7A
1497629309.96,52126,18.06,73580.3,2.61,-3.55,-6.63,0,*7A
1497629311.17,52127,18.0,73574.5,2.61,-3.51,-6.51,0,*7E
1497629312.36,52128,18.0,73576.3,2.61,-3.39,-6.51,0,*7F
1497629313.56,52129,18.0,73578.3,2.61,-3.39,-6.43,0,*7D
1497629314.8,52130,18.0,73572.8,2.61,-3.51,-6.63,0,*79
1497629316.04,52131,18.0,73568.0,2.59,-3.59,-6.73,0,*7A
1497629317.28,52132,18.06,73578.0,2.59,-3.55,-6.47,0,*72
1497629318.52,52133,18.06,73572.5,2.59,-3.55,-6.55,0,*70
1497629319.76,52134,18.0,73570.8,2.59,-3.43,-6.47,0,*73
1497629321.0,52135,18.06,73578.0,2.59,-3.43,-6.43,0,*76
1497629322.22,52136,18.0,73568.3,2.59,-3.35,-6.35,0,*75